This is the latest recevied weather packets stored in our database for station/object K1JO. If no packets are shown the sender has not sent any weather packets the latest 10 day(s).
| Time | Temp. | Humidity | Pressure | Rain* | Wind** | Luminosity | Snow |
|---|---|---|---|---|---|---|---|
| 1777861907 | 2.78° C | 92% | 1000.5 hPa | 0 mm | - | 0 W/m² | - |
| 1777861603 | 3.33° C | 91% | 1000.5 hPa | 0 mm | - | 0 W/m² | - |
| 1777861299 | 3.33° C | 92% | 1000.6 hPa | 0 mm | - | 0 W/m² | - |
| 1777860997 | 3.33° C | 91% | 1000.6 hPa | 0 mm | - | 0 W/m² | - |
| 1777860694 | 3.89° C | 88% | 1000.4 hPa | 0 mm | - | 0 W/m² | - |
| 1777860391 | 3.89° C | 88% | 1000.4 hPa | 0 mm | - | 0 W/m² | - |
| 1777860086 | 3.89° C | 89% | 1000.4 hPa | 0 mm | - | 0 W/m² | - |
| 1777859783 | 3.89° C | 86% | 1000.3 hPa | 0 mm | - | 0 W/m² | - |
| 1777859480 | 3.89° C | 85% | 1000.4 hPa | 0 mm | - | 0 W/m² | - |
| 1777859176 | 4.44° C | 87% | 1000.4 hPa | 0 mm | - | 0 W/m² | - |
| 1777858873 | 3.89° C | 86% | 1000.3 hPa | 0 mm | - | 0 W/m² | - |
| 1777858570 | 3.89° C | 88% | 1000.1 hPa | 0 mm | - | 0 W/m² | - |
| 1777858267 | 4.44° C | 87% | 1000.3 hPa | 0 mm | - | 0 W/m² | - |
| 1777857964 | 4.44° C | 89% | 1000.2 hPa | 0 mm | - | 0 W/m² | - |
| 1777857662 | 5° C | 89% | 1000.2 hPa | 0 mm | - | 0 W/m² | - |
| 1777857359 | 5° C | 87% | 999.8 hPa | 0 mm | - | 0 W/m² | - |
| 1777857055 | 5.56° C | 86% | 999.8 hPa | 0 mm | - | 0 W/m² | - |
| 1777856751 | 5.56° C | 85% | 999.8 hPa | 0 mm | - | 0 W/m² | - |
| 1777856447 | 5.56° C | 87% | 999.8 hPa | 0 mm | - | 0 W/m² | - |
| 1777856144 | 5.56° C | 90% | 999.7 hPa | 0 mm | - | 0 W/m² | - |
| 1777855841 | 5° C | 92% | 999.6 hPa | 0 mm | - | 0 W/m² | - |
| 1777855539 | 5° C | 96% | 999.7 hPa | 0 mm | - | 0 W/m² | - |
| 1777855236 | 5° C | 98% | 999.5 hPa | 0 mm | - | 0 W/m² | - |
| 1777854932 | 5° C | 99% | 999.1 hPa | 0 mm | - | 0 W/m² | - |
| 1777854629 | 5° C | 99% | 999 hPa | 0 mm | - | 0 W/m² | - |
* Rain latest hour (hover to see other rain measurements)
** Current wind speed in m/s (hover to see current wind gust speed)